Regional Weather Roundup
Issued by NWS Newport/Morehead, NC

Current Version | Previous Version | Text Only | Print | Product List | Glossary On
Versions: 1 2 3 4 5 6 7 8 9 10 11 12 13 14 15 16 17 18 19 20 21 22 23 24 25 26 27 28 29 30 31 32 33 34 35 36 37 38 39 40 41 42 43 44 45 46 47 48 49 50
000
ASUS42 KMHX 201122
RWRMHX
WEATHER ROUNDUP FOR EASTERN NORTH CAROLINA
NATIONAL WEATHER SERVICE NEWPORT/MOREHEAD CITY NC
700 AM EDT MON OCT 20 2014

NOTE: "FAIR" INDICATES FEW OR NO CLOUDS BELOW 12,000 FEET
WITH NO SIGNIFICANT WEATHER AND/OR OBSTRUCTIONS TO VISIBILITY

NCZ015>017-031-032-045>047-102-103-201200-
NORTH COAST

CITY           SKY/WX    TMP DP  RH WIND       PRES   REMARKS
EDENTON        PTCLDY    41  39  93 CALM      30.17R
ELIZABETH CITY CLEAR     41  38  89 CALM      30.15S
KITTY HAWK     SUNNY     55  44  67 W3        30.14R
MANTEO         CLEAR     46  43  88 CALM      30.16R

$$

NCZ045>047-081-094-103-104-201200-
CENTRAL COAST

CITY           SKY/WX    TMP DP  RH WIND       PRES   REMARKS
FRISCO         CLEAR     48  45  89 N3        30.15S
SWANQUARTER      N/A     43 N/A N/A CALM      30.15R

$$

NCZ095-097-098-100-101-201200-
SOUTHERN COAST

CITY           SKY/WX    TMP DP  RH WIND       PRES   REMARKS
BEAUFORT       PTCLDY    46  44  93 CALM      30.17R
CEDAR ISLAND     N/A     50 N/A N/A SW1       30.21R
JACKSONVILLE   CLEAR     43  41  93 CALM      30.16R
PINEY ISLAND   MOSUNNY   56  47  71 SW5       30.16R
WILMINGTON     CLEAR     45  42  89 CALM      30.15S


$$

NCZ011>013-027>030-043-044-078>080-089-090>093-098-201200-
COASTAL PLAIN

CITY           SKY/WX    TMP DP  RH WIND       PRES   REMARKS
AHOSKIE        PTCLDY    36  35  96 CALM      30.17R
CLINTON        CLEAR     41  41 100 CALM      30.17S
ELIZABETHTOWN  CLEAR     43  41  92 CALM      30.16S
GOLDSBORO      CLEAR     41  40  97 E2        30.15R
GREENVILLE     PTCLDY    41  41 100 CALM      30.18R FOG
HAVELOCK       PTCLDY    42  40  92 CALM      30.18R
KENANSVILLE    CLEAR     38  38 100 CALM      30.17F
KINSTON        CLEAR     39  37  93 CALM      30.18R
NEW BERN       CLEAR     44  42  93 CALM      30.19R FOG
RICHLANDS      CLEAR     37  36  93 CALM      30.17S
ROCKY MOUNT    PTCLDY    40  39  97 CALM      30.17R
WASHINGTON     PTCLDY    40  39  98 CALM      30.18R
WHITEVILLE     CLEAR     43  41  95 CALM      30.16R

$$

AMZ130-135-150-152-154-156-158-170-250-252-270-ANZ085-086-088-633-658-670-201200-
MARINE OBSERVATIONS

STATION/POSITION TIME  TEMP    WIND        PRES    WAVE   SWELL
                       AIR SEA DIR/SP/G            HT/PER HT/PER
                 (UTC) (F)     (DEG/KT/KT) (MB)    (FT/S) (FT/S)
CHESAPEAKE LIGHT 1100   59     110/  2/  3 1021.3
64 E VA BEACH    1100   60 69   80/  4/  6 1020.2    3/12   3/12
DUCK             1100   58 67  270/  5/  6 1020.1
2 E DUCK         1100                        N/A     3/13   2/13
10 NE DUCK       1100      71                N/A     3/13   2/13
OREGON INLET     1100   57 67  280/  3/  4 1020.9
13E OREGON INLT  1100      73                N/A     4/13   2/13
HATTERAS CG      1100   59 65   CALM  /  2 1021.4
DIAMOND BUOY     1100   62      20/  4/  8 1020.8    4/12   3/12
17 S OCRACOKE    1000          VRB  2/  6  1020.5
CAPE LOOKOUT     1100   60     360/  7/  9 1021.1
BEAUFORT LAB     1100   56 69  340/  3/  3 1020.8
30 SE NEW RIVER  1100   65 76  130/  6/ 10 1020.4    2/10   2/10
5 SE WRIGHTSVLE  1100   62 73  130/  8/ 10   N/A
225 S CAPE HAT   1021   70 80   50/  8/ 12 1019.9    5/ 8   5/ 8
41 SE CHARLESTON 1100   71 79   70/  4/  6 1019.2    2/ 9   2/ 9

$$


USA.gov is the U.S. government's official web portal to all federal, state and local government web resources and services.